User: anonymous   Login
Location: Ithaca
(42.4410°N, 76.4970°W)
Time: 17:25:59
(UTC-04:00)
Language:

Cosmos 1271 Rocket - Orbit

View from above orbital plane
View from above orbital plane
View from above satellite
View from above satellite

Ground track
Ground track

The orbit data is extracted from the following two-line orbital elements,

1 12465U 81046B   18147.22819451 +.00000602 +00000-0 +31207-4 0  9995
2 12465 081.2424 349.1208 0033344 250.5885 109.1738 15.14176048006437
Epoch (UTC): 27 May 2018 05:28:36
Eccentricity: 0.0033344
inclination: 81.2424°
perigee height: 500 km
apogee height: 546 km
right ascension of ascending node: 349.1208°
argument of perigee: 250.5885°
revolutions per day: 15.14176048
mean anomaly at epoch: 109.1738°
orbit number at epoch: 643

The dashed part of the orbit path shows where the satellite is in the earth's shadow,  

DLR